1503514801.12,26401,17.19,73980.3,-3.01,-25.45,-26.49,0,*5C
1503514802.32,26402,17.19,73982.5,-3.03,-25.35,-26.45,0,*56
1503514803.58,26403,17.19,73982.8,-3.01,-25.35,-26.29,0,*5F
1503514804.84,26404,17.19,73984.5,-3.03,-25.29,-26.33,0,*5C
1503514806.07,26405,17.19,73984.8,-3.03,-25.45,-26.45,0,*56
1503514807.3,26406,17.19,73986.5,-3.03,-25.81,-26.61,0,*5B
1503514808.51,26407,17.19,73986.3,-3.03,-25.65,-26.65,0,*54
1503514809.74,26408,17.19,73980.5,-3.03,-25.35,-26.33,0,*5D
1503514810.98,26409,17.19,73986.3,-3.03,-24.97,-25.97,0,*58
1503514812.19,26410,17.19,73984.8,-3.03,-25.13,-26.07,0,*57
1503514813.4,26411,17.19,73982.5,-3.03,-25.49,-26.61,0,*59
1503514814.63,26412,17.19,73984.3,-3.03,-25.29,-26.45,0,*5A
1503514815.9,26413,17.19,73986.3,-3.01,-25.13,-25.97,0,*5C
1503514817.13,26414,17.19,73984.3,-3.03,-25.19,-26.29,0,*55
1503514818.42,26415,17.19,73984.3,-3.01,-25.29,-26.29,0,*55
1503514819.65,26416,17.19,73986.0,-3.03,-25.35,-26.33,0,*52
1503514820.91,26417,17.19,73980.8,-3.03,-25.29,-26.33,0,*5E
1503514822.14,26418,17.19,73982.0,-3.03,-25.35,-26.29,0,*57
1503514823.42,26419,17.19,73986.0,-3.01,-25.29,-26.17,0,*54
1503514824.72,26420,17.19,73980.0,-3.01,-24.83,-25.75,0,*58
1503514825.98,26421,17.19,73982.5,-3.01,-25.19,-26.29,0,*51
1503514827.21,26422,17.19,73982.5,-3.01,-25.35,-26.49,0,*5A
1503514828.44,26423,17.19,73986.0,-3.03,-25.35,-26.33,0,*54
1503514829.68,26424,17.19,73986.0,-3.03,-25.13,-25.97,0,*5A
1503514830.94,26425,17.19,73986.5,-3.01,-25.19,-26.17,0,*58
1503514832.17,26426,17.19,73984.8,-3.03,-25.19,-26.17,0,*59
1503514833.39,26427,17.19,73986.3,-3.01,-25.35,-26.45,0,*53
1503514834.68,26428,17.13,73978.0,-3.01,-25.29,-26.29,0,*5B
1503514835.94,26429,17.19,73980.0,-3.03,-25.29,-26.29,0,*58
1503514837.15,26430,17.19,73982.8,-3.03,-25.49,-26.61,0,*5A
1503514838.41,26431,17.19,73986.5,-3.03,-25.29,-26.17,0,*5C
1503514839.64,26432,17.19,73986.5,-3.03,-25.13,-26.13,0,*52
1503514840.9,26433,17.19,73986.0,-3.01,-25.19,-26.13,0,*5B
1503514842.19,26434,17.19,73986.5,-3.01,-25.29,-26.33,0,*5D
1503514843.47,26435,17.19,73984.3,-3.01,-25.29,-26.29,0,*57
1503514844.71,26436,17.19,73982.5,-3.03,-25.19,-26.13,0,*5C
1503514845.96,26437,17.19,73982.0,-3.01,-25.19,-26.17,0,*5B
1503514847.2,26438,17.19,73986.5,-3.03,-25.13,-26.13,0,*58
1503514848.43,26439,17.19,73982.3,-3.01,-24.97,-25.91,0,*5F
1503514849.69,26440,17.19,73984.5,-3.01,-25.19,-26.13,0,*5F
1503514850.94,26441,17.19,73980.0,-3.01,-25.19,-26.17,0,*5A
1503514852.2,26442,17.19,73978.5,-3.01,-25.19,-26.29,0,*54
1503514853.43,26443,17.19,73982.8,-3.03,-25.19,-26.17,0,*5A
1503514854.69,26444,17.19,73984.5,-3.03,-25.29,-26.29,0,*53
1503514855.92,26445,17.19,73982.5,-3.03,-25.19,-26.17,0,*5C
1503514857.16,26446,17.19,73982.5,-3.03,-25.13,-26.13,0,*51
1503514858.37,26447,17.19,73984.0,-3.03,-25.13,-26.07,0,*55
1503514859.63,26448,17.19,73982.5,-3.01,-25.19,-26.13,0,*57
1503514860.91,26449,17.19,73980.3,-3.01,-25.29,-26.17,0,*51
1503514862.14,26450,17.19,73980.8,-3.03,-25.19,-26.13,0,*5C
1503514863.4,26451,17.19,73980.3,-3.01,-25.19,-26.29,0,*56
1503514864.63,26452,17.19,73980.8,-3.03,-25.19,-26.17,0,*5A
1503514865.89,26453,17.19,73986.0,-3.01,-25.13,-26.17,0,*53
1503514867.15,26454,17.13,73978.0,-3.01,-24.93,-25.81,0,*51
1503514868.38,26455,17.19,73982.5,-3.03,-25.19,-26.29,0,*50
1503514869.66,26456,17.19,73980.3,-3.01,-25.29,-26.29,0,*52
1503514870.9,26457,17.19,73982.5,-3.03,-25.19,-26.29,0,*52
1503514872.16,26458,17.19,73982.0,-3.01,-25.35,-26.33,0,*5A
1503514873.44,26459,17.19,73982.5,-3.01,-25.29,-26.29,0,*5D
1503514874.68,26460,17.19,73984.3,-3.03,-25.13,-26.13,0,*55
1503514875.92,26461,17.19,73980.8,-3.03,-24.77,-25.75,0,*54
1503514877.13,26462,17.19,73984.0,-3.03,-25.13,-26.07,0,*52
1503514878.37,26463,17.19,73980.0,-3.03,-25.19,-26.29,0,*55
1503514879.59,26464,17.19,73980.8,-3.05,-25.19,-26.23,0,*5E
1503514880.82,26465,17.19,73982.5,-3.03,-25.19,-26.13,0,*5A
1503514882.06,26466,17.19,73982.0,-3.03,-25.03,-26.07,0,*57
1503514883.29,26467,17.19,73980.8,-3.03,-25.19,-26.17,0,*5C
1503514884.52,26468,17.19,73984.8,-3.03,-25.19,-26.33,0,*55
1503514885.73,26469,17.19,73980.3,-3.03,-25.13,-26.07,0,*59
1503514886.96,26470,17.19,73982.3,-3.03,-24.93,-25.81,0,*55
1503514888.19,26471,17.13,73982.0,-3.03,-25.03,-26.07,0,*51
1503514889.43,26472,17.19,73986.0,-3.03,-25.13,-26.17,0,*52
1503514890.64,26473,17.19,73982.3,-3.03,-24.97,-25.91,0,*53
1503514891.87,26474,17.19,73982.8,-3.03,-24.97,-25.97,0,*52
1503514893.13,26475,17.19,73980.3,-3.01,-24.97,-25.97,0,*51
1503514894.4,26476,17.19,73982.8,-3.03,-24.83,-25.81,0,*52
1503514895.62,26477,17.19,73984.5,-3.01,-24.93,-25.91,0,*51
1503514896.89,26478,17.19,73986.0,-3.03,-24.83,-25.75,0,*57
1503514898.18,26479,17.19,73982.8,-3.01,-25.03,-26.13,0,*5E
1503514899.44,26480,17.19,73986.0,-3.03,-25.03,-25.97,0,*55
1503514900.68,26481,17.19,73980.5,-3.03,-24.97,-25.97,0,*58
1503514901.91,26482,17.19,73982.3,-3.03,-25.19,-26.13,0,*53
1503514903.14,26483,17.19,73984.3,-3.03,-25.19,-26.17,0,*56
1503514904.34,26484,17.19,73986.0,-3.03,-24.93,-25.91,0,*5F
1503514905.58,26485,17.19,73986.5,-3.03,-24.83,-25.91,0,*5F
1503514906.81,26486,17.19,73980.5,-3.03,-24.97,-25.97,0,*5F
1503514908.05,26487,17.19,73982.3,-3.03,-25.03,-26.07,0,*58
1503514909.28,26488,17.19,73984.5,-3.03,-25.03,-25.91,0,*5B
1503514910.54,26489,17.19,73984.0,-3.03,-25.03,-26.13,0,*53
1503514911.78,26490,17.13,73982.3,-3.03,-25.03,-26.07,0,*5E
1503514913.03,26491,17.19,73982.3,-3.05,-24.87,-25.87,0,*5F
1503514914.29,26492,17.19,73982.5,-3.05,-25.03,-26.03,0,*5E
1503514915.55,26493,17.19,73984.3,-3.03,-25.03,-26.13,0,*58
1503514916.76,26494,17.19,73984.0,-3.03,-24.97,-26.07,0,*56
1503514917.97,26495,17.19,73980.8,-3.03,-24.97,-26.07,0,*57
1503514919.22,26496,17.19,73986.0,-3.05,-24.97,-25.97,0,*58
1503514920.45,26497,17.19,73984.5,-3.07,-25.23,-26.17,0,*5E
1503514921.71,26498,17.19,73982.3,-3.05,-24.83,-25.87,0,*52
1503514922.94,26499,17.19,73986.8,-3.05,-24.97,-25.87,0,*56
1503514924.17,26500,17.19,73984.3,-3.05,-25.09,-26.03,0,*5E
1503514925.45,26501,17.13,73980.8,-3.05,-24.87,-25.81,0,*51
1503514926.73,26502,17.19,73984.3,-3.05,-24.87,-25.97,0,*55
1503514927.93,26503,17.19,73984.0,-3.03,-24.93,-25.91,0,*51
1503514929.2,26504,17.19,73982.8,-3.03,-25.03,-25.97,0,*58
1503514930.43,26505,17.19,73982.0,-3.03,-25.03,-26.07,0,*53
1503514931.67,26506,17.19,73984.5,-3.03,-24.77,-25.75,0,*54
1503514932.91,26507,17.19,73984.3,-3.05,-24.97,-26.03,0,*5F
1503514934.13,26508,17.19,73982.5,-3.05,-25.19,-26.23,0,*55
1503514935.36,26509,17.19,73982.5,-3.05,-25.09,-26.03,0,*57
1503514936.62,26510,17.19,73982.8,-3.05,-24.97,-25.97,0,*57
1503514937.88,26511,17.19,73982.8,-3.07,-24.67,-25.75,0,*57
1503514939.17,26512,17.19,73982.0,-3.05,-24.87,-25.97,0,*54
1503514940.4,26513,17.19,73982.5,-3.07,-24.77,-25.81,0,*5F
1503514941.61,26514,17.13,73980.0,-3.03,-24.97,-25.91,0,*53
1503514942.87,26515,17.19,73984.8,-3.05,-24.67,-25.65,0,*50
1503514944.11,26516,17.19,73984.8,-3.05,-24.51,-25.49,0,*58
1503514945.4,26517,17.13,73982.5,-3.05,-24.71,-25.81,0,*5F
1503514946.69,26518,17.19,73986.3,-3.05,-24.83,-25.81,0,*5D
1503514947.9,26519,17.19,73982.3,-3.03,-24.61,-25.65,0,*5C
1503514949.16,26520,17.19,73986.0,-3.01,-24.93,-25.81,0,*53
1503514950.42,26521,17.19,73984.5,-3.03,-24.83,-25.75,0,*5A
1503514951.67,26522,17.19,73982.5,-3.03,-24.77,-25.97,0,*5E
1503514952.92,26523,17.19,73986.8,-3.05,-24.87,-25.87,0,*57
1503514954.19,26524,17.19,73980.8,-3.03,-24.83,-25.97,0,*53
1503514955.42,26525,17.13,73980.3,-3.05,-25.09,-26.03,0,*59
1503514956.67,26526,17.19,73982.3,-3.05,-25.09,-26.17,0,*5F
1503514957.95,26527,17.13,73980.3,-3.05,-25.03,-26.13,0,*50
1503514959.21,26528,17.13,73982.8,-3.05,-24.97,-25.97,0,*5C
1503514960.5,26529,17.19,73982.8,-3.05,-24.71,-25.71,0,*5D
1503514961.78,26530,17.19,73980.5,-3.07,-24.71,-25.75,0,*53
1503514963.08,26531,17.19,73986.8,-3.05,-24.71,-25.71,0,*54
1503514964.32,26532,17.13,73982.0,-3.07,-24.77,-25.75,0,*57
1503514965.58,26533,17.19,73982.8,-3.05,-24.67,-25.65,0,*54
1503514966.84,26534,17.19,73984.0,-3.05,-24.87,-26.03,0,*5E
1503514968.07,26535,17.13,73982.5,-3.07,-24.97,-25.97,0,*52
1503514969.31,26536,17.19,73984.3,-3.05,-24.57,-25.65,0,*52
1503514970.58,26537,17.19,73986.3,-3.07,-24.71,-25.75,0,*54
1503514971.87,26538,17.13,73980.8,-3.05,-24.71,-25.81,0,*52
1503514973.14,26539,17.13,73980.0,-3.05,-24.57,-25.71,0,*58
1503514974.42,26540,17.19,73980.5,-3.05,-24.67,-25.71,0,*55
1503514975.64,26541,17.19,73986.8,-3.07,-24.57,-25.61,0,*54
1503514976.93,26542,17.19,73986.0,-3.05,-24.67,-25.75,0,*53
1503514978.21,26543,17.19,73986.5,-3.05,-24.83,-25.81,0,*53
1503514979.45,26544,17.19,73982.8,-3.05,-24.57,-25.65,0,*57
1503514980.74,26545,17.13,73982.5,-3.05,-24.71,-25.81,0,*58
1503514981.98,26546,17.19,73984.5,-3.05,-24.51,-25.65,0,*53
1503514983.27,26547,17.13,73982.3,-3.05,-24.67,-25.71,0,*52
1503514984.56,26548,17.19,73980.0,-3.05,-24.41,-25.55,0,*5F
1503514985.82,26549,17.19,73980.5,-3.05,-24.57,-25.55,0,*59
1503514987.12,26550,17.13,73982.3,-3.05,-24.71,-25.71,0,*53
1503514988.38,26551,17.19,73982.3,-3.05,-24.57,-25.71,0,*56
1503514989.65,26552,17.19,73980.8,-3.05,-24.51,-25.55,0,*55
1503514990.92,26553,17.19,73980.5,-3.07,-24.71,-25.75,0,*56
1503514992.18,26554,17.19,73984.0,-3.05,-24.83,-25.87,0,*53
1503514993.46,26555,17.19,73986.8,-3.05,-24.83,-25.81,0,*54
1503514994.72,26556,17.19,73984.5,-3.05,-24.83,-25.87,0,*51
1503514995.96,26557,17.19,73984.8,-3.05,-24.57,-25.65,0,*55
1503514997.19,26558,17.19,73984.0,-3.05,-24.57,-25.65,0,*5A
1503514998.43,26559,17.19,73982.5,-3.05,-24.57,-25.65,0,*5B
1503514999.7,26560,17.19,73982.5,-3.05,-24.51,-25.55,0,*54
1503515000.94,26561,17.19,73984.3,-3.03,-24.67,-25.65,0,*55
1503515002.2,26562,17.13,73982.8,-3.05,-24.67,-25.65,0,*50
1503515003.46,26563,17.13,73980.0,-3.05,-24.51,-25.55,0,*57
1503515004.73,26564,17.13,73982.8,-3.05,-24.51,-25.55,0,*50
1503515005.97,26565,17.19,73984.0,-3.03,-24.35,-25.45,0,*54
1503515007.2,26566,17.19,73986.8,-3.03,-24.51,-25.61,0,*53
1503515008.42,26567,17.19,73984.0,-3.03,-24.35,-25.49,0,*5A
1503515009.63,26568,17.19,73986.3,-3.03,-24.61,-25.65,0,*5A
1503515010.87,26569,17.19,73984.0,-3.03,-24.67,-25.65,0,*5D
1503515012.13,26570,17.19,73986.3,-3.03,-24.67,-25.81,0,*5F
1503515013.37,26571,17.19,73986.8,-3.03,-24.77,-25.75,0,*54
1503515014.61,26572,17.19,73982.8,-3.03,-24.83,-25.91,0,*56
1503515015.86,26573,17.19,73982.5,-3.05,-24.87,-25.87,0,*52
1503515017.1,26574,17.13,73982.3,-3.07,-24.87,-26.03,0,*58
1503515018.34,26575,17.13,73980.8,-3.05,-24.57,-25.61,0,*51
1503515019.61,26576,17.19,73982.0,-3.05,-24.51,-25.55,0,*53
1503515020.9,26577,17.13,73982.0,-3.05,-24.67,-25.71,0,*51
1503515022.18,26578,17.13,73980.0,-3.05,-24.83,-25.81,0,*5B
1503515023.44,26579,17.19,73982.3,-3.05,-24.83,-25.87,0,*5C
1503515024.69,26580,17.19,73982.3,-3.05,-24.87,-25.87,0,*5E
1503515025.93,26581,17.19,73980.8,-3.07,-24.71,-25.91,0,*53
1503515027.2,26582,17.19,73982.3,-3.05,-24.51,-25.55,0,*58
1503515028.5,26583,17.19,73982.3,-3.05,-24.71,-25.71,0,*5D
1503515029.73,26584,17.19,73984.0,-3.07,-24.87,-25.87,0,*58
1503515030.96,26585,17.13,73980.8,-3.05,-24.97,-25.87,0,*5A
1503515032.16,26586,17.13,73982.5,-3.07,-24.93,-26.03,0,*50
1503515033.37,26587,17.19,73982.0,-3.07,-24.77,-25.87,0,*54
1503515034.61,26588,17.19,73980.8,-3.07,-24.71,-25.87,0,*5D
1503515035.85,26589,17.13,73980.5,-3.07,-24.83,-25.91,0,*56
1503515037.06,26590,17.13,73982.5,-3.07,-24.93,-26.03,0,*57
1503515038.31,26591,17.19,73980.3,-3.05,-24.87,-25.87,0,*5E
1503515039.52,26592,17.13,73982.3,-3.07,-24.77,-25.87,0,*50
1503515040.78,26593,17.19,73984.5,-3.05,-24.83,-25.91,0,*5F
1503515042.02,26594,17.19,73982.8,-3.07,-24.71,-25.87,0,*50
1503515043.23,26595,17.19,73984.5,-3.07,-24.93,-26.03,0,*52
1503515044.46,26596,17.19,73984.8,-3.07,-25.03,-26.07,0,*5D
1503515045.76,26597,17.19,73982.5,-3.09,-24.71,-25.75,0,*50
1503515047.02,26598,17.19,73982.0,-3.09,-24.87,-25.87,0,*5B
1503515048.28,26599,17.13,73980.8,-3.09,-24.87,-25.87,0,*5A
1503515049.54,26600,17.13,73982.8,-3.09,-24.87,-25.87,0,*59
1503515050.77,26601,17.19,73982.3,-3.09,-24.93,-26.03,0,*52
1503515051.97,26602,17.19,73984.0,-3.11,-24.93,-26.03,0,*58
1503515053.25,26603,17.19,73986.3,-3.09,-24.71,-25.61,0,*5B
1503515054.52,26604,17.19,73984.8,-3.09,-24.77,-25.75,0,*5F
1503515055.75,26605,17.13,73980.8,-3.11,-24.67,-25.91,0,*5C
1503515057.05,26606,17.13,73982.8,-3.09,-24.71,-25.71,0,*5F
1503515058.31,26607,17.13,73980.5,-3.09,-24.87,-25.87,0,*5E
1503515059.55,26608,17.13,73982.8,-3.09,-24.77,-25.87,0,*5E
1503515060.82,26609,17.19,73986.0,-3.09,-24.47,-25.55,0,*53
1503515062.11,26610,17.19,73982.3,-3.09,-24.41,-25.45,0,*5C
1503515063.38,26611,17.13,73980.5,-3.09,-24.41,-25.61,0,*5B
1503515064.65,26612,17.13,73982.8,-3.09,-24.61,-25.75,0,*5F
1503515065.94,26613,17.19,73986.3,-3.09,-24.87,-25.71,0,*52
1503515067.18,26614,17.13,73982.0,-3.09,-24.57,-25.61,0,*59
1503515068.45,26615,17.19,73986.8,-3.09,-24.57,-25.71,0,*59
1503515069.69,26616,17.13,73982.0,-3.09,-24.57,-25.61,0,*5B
1503515070.96,26617,17.13,73982.8,-3.09,-24.57,-25.55,0,*5D
1503515072.23,26618,17.13,73982.8,-3.09,-24.47,-25.45,0,*52
1503515073.48,26619,17.13,73982.3,-3.09,-24.47,-25.61,0,*55
1503515074.75,26620,17.19,73986.8,-3.09,-24.61,-25.71,0,*5A
1503515075.96,26621,17.13,73980.0,-3.11,-24.61,-25.65,0,*57
1503515077.21,26622,17.13,73980.3,-3.09,-24.47,-25.39,0,*50
1503515078.48,26623,17.19,73986.3,-3.09,-24.41,-25.39,0,*57
1503515079.72,26624,17.13,73980.8,-3.09,-24.47,-25.61,0,*5B
1503515080.99,26625,17.19,73982.8,-3.09,-24.47,-25.45,0,*5C
1503515082.27,26626,17.19,73986.5,-3.09,-24.47,-25.55,0,*5E
1503515083.53,26627,17.13,73980.3,-3.09,-24.57,-25.71,0,*58
1503515084.83,26628,17.19,73984.8,-3.09,-24.71,-25.75,0,*57
1503515086.1,26629,17.19,73980.3,-3.09,-24.57,-25.55,0,*50
1503515087.35,26630,17.13,73982.8,-3.09,-24.31,-25.39,0,*52
1503515088.61,26631,17.19,73986.0,-3.09,-24.61,-25.71,0,*5A
1503515089.88,26632,17.13,73980.8,-3.09,-24.77,-25.75,0,*5A
1503515091.15,26633,17.19,73984.0,-3.09,-24.61,-25.71,0,*58
1503515092.39,26634,17.13,73980.8,-3.09,-24.57,-25.61,0,*5B
1503515093.66,26635,17.19,73984.8,-3.09,-24.47,-25.45,0,*5D
1503515094.88,26636,17.13,73980.5,-3.11,-24.51,-25.65,0,*52
1503515096.17,26637,17.19,73984.0,-3.09,-24.41,-25.45,0,*59
1503515097.41,26638,17.19,73982.0,-3.09,-24.61,-25.61,0,*52
1503515098.72,26639,17.13,73980.5,-3.09,-24.71,-25.75,0,*57
1503515099.97,26640,17.13,73982.3,-3.11,-24.67,-25.81,0,*5C
1503515101.24,26641,17.19,73982.0,-3.09,-24.77,-25.75,0,*5E
1503515102.48,26642,17.13,73980.5,-3.11,-24.83,-25.91,0,*55
1503515103.69,26643,17.13,73982.0,-3.11,-24.61,-25.65,0,*53
1503515104.93,26644,17.13,73980.8,-3.11,-24.51,-25.45,0,*55
1503515106.2,26645,17.19,73984.0,-3.09,-24.61,-25.71,0,*59
1503515107.44,26646,17.19,73980.5,-3.09,-24.61,-25.61,0,*5B
1503515108.74,26647,17.13,73980.0,-3.09,-24.71,-25.75,0,*5E
1503515110.01,26648,17.19,73984.5,-3.09,-24.77,-25.75,0,*57
1503515111.26,26649,17.13,73980.8,-3.09,-24.47,-25.39,0,*5D
1503515112.5,26650,17.19,73986.3,-3.11,-24.61,-25.75,0,*50
1503515113.74,26651,17.13,73982.8,-3.11,-24.77,-25.75,0,*56
1503515115.0,26652,17.19,73982.3,-3.11,-24.67,-25.75,0,*54
1503515116.26,26653,17.13,73982.5,-3.11,-24.67,-25.75,0,*55
1503515117.48,26654,17.19,73984.0,-3.11,-24.51,-25.65,0,*56
1503515118.71,26655,17.13,73980.0,-3.11,-24.47,-25.61,0,*54
1503515119.93,26656,17.13,73982.3,-3.11,-24.51,-25.61,0,*50
1503515121.19,26657,17.19,73984.0,-3.11,-24.83,-25.81,0,*50
1503515122.42,26658,17.13,73980.5,-3.11,-24.93,-25.81,0,*5E
1503515123.66,26659,17.13,73980.5,-3.13,-24.51,-25.61,0,*5D
1503515124.93,26660,17.13,73982.0,-3.13,-24.47,-25.45,0,*56
1503515126.17,26661,17.13,73982.0,-3.13,-24.51,-25.65,0,*52
1503515127.43,26662,17.19,73980.3,-3.13,-24.61,-25.75,0,*53
1503515128.7,26663,17.19,73982.3,-3.13,-24.47,-25.45,0,*55
1503515129.92,26664,17.19,73982.3,-3.11,-24.47,-25.61,0,*56
1503515131.16,26665,17.13,73980.5,-3.11,-24.77,-25.75,0,*51
1503515132.43,26666,17.19,73984.3,-3.11,-24.83,-25.75,0,*59
1503515133.67,26667,17.13,73980.5,-3.11,-24.67,-25.65,0,*53
1503515134.9,26668,17.13,73982.5,-3.11,-24.77,-25.81,0,*57
1503515136.14,26669,17.13,73978.8,-3.11,-24.51,-25.45,0,*5A
1503515137.38,26670,17.13,73980.5,-3.13,-24.35,-25.35,0,*55
1503515138.62,26671,17.19,73986.5,-3.13,-24.47,-25.35,0,*51
1503515139.86,26672,17.13,73978.8,-3.13,-24.61,-25.49,0,*5D
1503515141.12,26673,17.19,73982.0,-3.13,-24.47,-25.45,0,*54
1503515142.36,26674,17.13,73982.0,-3.13,-24.47,-25.19,0,*5A
1503515143.59,26675,17.19,73982.8,-3.13,-24.35,-25.35,0,*50
1503515144.83,26676,17.13,73980.0,-3.13,-24.31,-25.19,0,*59
1503515146.07,26677,17.13,73980.0,-3.13,-24.31,-25.13,0,*52
1503515147.31,26678,17.13,73980.5,-3.11,-24.15,-25.09,0,*52
1503515148.6,26679,17.13,73984.3,-3.09,-24.41,-25.29,0,*59
1503515149.89,26680,17.13,73980.8,-3.09,-24.41,-25.45,0,*55
1503515151.13,26681,17.13,73980.5,-3.11,-24.15,-25.09,0,*54
1503515152.36,26682,17.13,73980.8,-3.11,-24.11,-24.97,0,*55
1503515153.61,26683,17.19,73984.0,-3.13,-24.35,-25.49,0,*52
1503515154.85,26684,17.19,73986.5,-3.11,-24.61,-25.75,0,*59
1503515156.08,26685,17.19,73984.0,-3.11,-24.47,-25.45,0,*5F
1503515157.32,26686,17.13,73982.8,-3.11,-24.35,-25.45,0,*59
1503515158.56,26687,17.13,73980.3,-3.11,-24.21,-25.13,0,*5E
1503515159.8,26688,17.19,73986.8,-3.11,-24.15,-25.09,0,*5D
1503515161.01,26689,17.13,73982.8,-3.11,-24.35,-25.35,0,*51
1503515162.23,26690,17.19,73986.3,-3.11,-24.47,-25.35,0,*5C
1503515163.45,26691,17.13,73980.0,-3.11,-24.47,-25.49,0,*56
1503515164.66,26692,17.13,73984.3,-3.11,-24.31,-25.19,0,*51
1503515165.91,26693,17.19,73984.5,-3.11,-24.11,-25.09,0,*53
1503515167.14,26694,17.13,73984.0,-3.11,-24.47,-25.45,0,*5F
1503515168.38,26695,17.19,73986.0,-3.11,-24.47,-25.45,0,*5E
1503515169.6,26696,17.19,73986.8,-3.11,-24.61,-25.65,0,*5B
1503515170.86,26697,17.19,73984.8,-3.13,-24.35,-25.45,0,*5B
1503515172.12,26698,17.19,73986.8,-3.13,-24.47,-25.45,0,*51
1503515173.38,26699,17.13,73984.3,-3.13,-24.35,-25.45,0,*55
1503515174.62,26700,17.13,73982.0,-3.11,-24.35,-25.45,0,*56
1503515175.83,26701,17.13,73984.3,-3.11,-24.61,-25.65,0,*54
1503515177.05,26702,17.13,73982.3,-3.11,-24.51,-25.65,0,*54
1503515178.3,26703,17.13,73984.0,-3.13,-24.47,-25.49,0,*5E
1503515179.54,26704,17.19,73986.3,-3.13,-24.61,-25.61,0,*57
1503515180.79,26705,17.13,73984.5,-3.13,-24.47,-25.49,0,*58
1503515182.05,26706,17.13,73980.5,-3.13,-24.35,-25.45,0,*52
1503515183.29,26707,17.13,73984.3,-3.13,-24.51,-25.61,0,*57
1503515184.54,26708,17.19,73986.3,-3.13,-24.51,-25.61,0,*58
1503515185.78,26709,17.13,73980.0,-3.11,-24.47,-25.45,0,*5A
1503515187.02,26710,17.19,73986.5,-3.13,-24.51,-25.61,0,*51
1503515188.29,26711,17.13,73982.5,-3.17,-24.51,-25.55,0,*53
1503515189.57,26712,17.13,73982.0,-3.13,-23.85,-24.83,0,*50
1503515190.84,26713,17.13,73982.0,-3.13,-24.21,-25.13,0,*50
1503515192.1,26714,17.13,73984.3,-3.13,-24.11,-24.97,0,*59
1503515193.35,26715,17.13,73982.5,-3.13,-24.15,-24.97,0,*5C
1503515194.61,26716,17.13,73984.3,-3.13,-24.15,-25.13,0,*52
1503515195.88,26717,17.13,73982.3,-3.17,-24.41,-25.39,0,*5E
1503515197.11,26718,17.13,73980.0,-3.13,-24.31,-25.19,0,*50
1503515198.35,26719,17.13,73982.5,-3.13,-24.31,-25.35,0,*5F
1503515199.59,26720,17.13,73980.8,-3.13,-24.31,-25.35,0,*55
1503515200.85,26721,17.19,73986.8,-3.13,-24.11,-24.97,0,*5F
1503515202.09,26722,17.13,73982.0,-3.13,-24.31,-25.35,0,*57
1503515203.35,26723,17.13,73982.5,-3.17,-24.15,-25.13,0,*50
1503515204.6,26724,17.13,73982.8,-3.17,-23.99,-24.97,0,*59
1503515205.87,26725,17.13,73980.0,-3.13,-24.11,-25.09,0,*5D
1503515207.13,26726,17.13,73980.5,-3.13,-24.21,-25.19,0,*5C
1503515208.39,26727,17.13,73980.0,-3.17,-24.21,-25.19,0,*59
1503515209.63,26728,17.13,73980.5,-3.17,-24.35,-25.23,0,*5A
1503515210.86,26729,17.19,73984.0,-3.13,-24.35,-25.35,0,*58
1503515212.13,26730,17.13,73980.0,-3.17,-24.25,-25.23,0,*52
1503515213.4,26731,17.13,73980.5,-3.17,-24.21,-25.13,0,*54
1503515214.63,26732,17.19,73984.5,-3.13,-23.79,-24.93,0,*50
1503515215.89,26733,17.13,73980.3,-3.13,-24.15,-25.13,0,*55
1503515217.15,26734,17.13,73982.0,-3.13,-24.21,-25.13,0,*55
1503515218.42,26735,17.13,73984.8,-3.13,-24.21,-25.09,0,*5F
1503515219.67,26736,17.13,73982.8,-3.13,-23.79,-24.67,0,*5F
1503515220.95,26737,17.13,73984.3,-3.13,-23.69,-24.83,0,*55
1503515222.22,26738,17.13,73982.5,-3.13,-23.69,-24.83,0,*5A
1503515223.46,26739,17.13,73980.0,-3.13,-23.79,-24.77,0,*51
1503515224.71,26740,17.13,73980.8,-3.13,-23.99,-24.93,0,*5B
1503515225.95,26741,17.13,73982.0,-3.11,-23.99,-24.97,0,*5C
1503515227.2,26742,17.13,73984.3,-3.13,-23.95,-24.93,0,*55
1503515228.46,26743,17.13,73982.0,-3.13,-24.15,-24.97,0,*5F
1503515229.71,26744,17.13,73982.8,-3.13,-23.99,-24.93,0,*5F
1503515230.99,26745,17.13,73986.3,-3.13,-23.95,-24.83,0,*53
1503515232.25,26746,17.13,73982.8,-3.13,-24.11,-24.97,0,*5E
1503515233.49,26747,17.13,73980.8,-3.11,-24.15,-25.13,0,*54
1503515234.72,26748,17.13,73982.5,-3.11,-24.15,-25.09,0,*50
1503515235.96,26749,17.13,73980.8,-3.11,-24.11,-25.09,0,*55
1503515237.23,26750,17.13,73982.5,-3.09,-24.05,-25.03,0,*5B
1503515238.48,26751,17.13,73982.3,-3.13,-23.95,-24.93,0,*57
1503515239.74,26752,17.13,73980.3,-3.13,-23.95,-24.97,0,*50
1503515241.0,26753,17.13,73980.3,-3.13,-24.15,-25.09,0,*58
1503515242.26,26754,17.13,73982.0,-3.13,-23.99,-24.93,0,*5E
1503515243.51,26755,17.13,73984.3,-3.13,-23.99,-24.97,0,*5B
1503515244.77,26756,17.13,73980.5,-3.13,-23.99,-24.93,0,*5C
1503515246.03,26757,17.13,73982.8,-3.13,-23.95,-24.97,0,*55
1503515247.28,26758,17.13,73982.8,-3.13,-23.95,-24.93,0,*5E
1503515248.55,26759,17.13,73980.8,-3.13,-24.11,-25.09,0,*56
1503515249.78,26760,17.13,73980.8,-3.17,-24.35,-25.23,0,*56
1503515251.06,26761,17.13,73984.5,-3.13,-23.95,-24.83,0,*55
1503515252.3,26762,17.13,73982.5,-3.13,-23.79,-24.77,0,*5F
1503515253.55,26763,17.13,73982.0,-3.13,-23.95,-24.93,0,*56
1503515254.81,26764,17.13,73982.8,-3.13,-23.99,-24.97,0,*59
1503515256.05,26765,17.13,73980.5,-3.17,-24.05,-24.97,0,*5E
1503515257.31,26766,17.13,73984.5,-3.13,-24.15,-25.09,0,*5E
1503515258.57,26767,17.13,73980.3,-3.13,-24.11,-25.09,0,*5B
1503515259.81,26768,17.13,73980.8,-3.13,-24.31,-25.35,0,*59
1503515261.08,26769,17.13,73982.0,-3.17,-24.25,-25.13,0,*5D
1503515262.35,26770,17.13,73984.8,-3.17,-24.25,-25.13,0,*55
1503515263.58,26771,17.19,73984.3,-3.17,-23.89,-24.97,0,*58
1503515264.83,26772,17.19,73986.5,-3.17,-23.99,-24.97,0,*5A
1503515266.09,26773,17.13,73980.8,-3.17,-24.15,-25.13,0,*55
1503515267.36,26774,17.13,73980.5,-3.13,-24.11,-25.09,0,*59
1503515268.59,26775,17.13,73986.0,-3.17,-24.05,-24.97,0,*5F
1503515269.85,26776,17.13,73982.8,-3.17,-23.99,-24.97,0,*5E
1503515271.11,26777,17.13,73986.5,-3.13,-23.99,-24.93,0,*5F
1503515272.36,26778,17.13,73982.8,-3.13,-23.95,-24.93,0,*5C
1503515273.62,26779,17.13,73984.5,-3.17,-23.89,-24.87,0,*51
1503515274.9,26780,17.13,73982.3,-3.17,-23.99,-24.87,0,*56
1503515276.19,26781,17.13,73982.5,-3.17,-24.15,-25.03,0,*59
1503515277.44,26782,17.13,73982.5,-3.13,-23.95,-24.93,0,*59
1503515278.67,26783,17.13,73980.5,-3.17,-23.89,-24.97,0,*55
1503515279.91,26784,17.13,73982.0,-3.13,-23.79,-24.77,0,*57
1503515281.16,26785,17.13,73976.8,-3.13,-24.11,-24.97,0,*51
1503515282.4,26786,17.13,73980.0,-3.17,-24.05,-24.97,0,*53
1503515283.63,26787,17.13,73980.5,-3.13,-23.79,-24.77,0,*54
1503515284.89,26788,17.13,73980.3,-3.13,-23.69,-24.77,0,*5A
1503515286.15,26789,17.13,73980.8,-3.17,-24.21,-25.19,0,*5D
1503515287.39,26790,17.13,73980.0,-3.17,-24.05,-25.13,0,*59
1503515288.67,26791,17.13,73984.3,-3.13,-23.85,-24.83,0,*5B
1503515289.95,26792,17.13,73982.3,-3.17,-23.99,-24.87,0,*55
1503515291.24,26793,17.13,73984.3,-3.17,-23.99,-24.87,0,*54
1503515292.52,26794,17.13,73982.8,-3.13,-23.95,-24.83,0,*5F
1503515293.8,26795,17.13,73980.0,-3.17,-23.85,-24.83,0,*5B
1503515295.05,26796,17.13,73982.3,-3.13,-23.85,-24.93,0,*5D
1503515296.34,26797,17.13,73980.0,-3.13,-23.85,-24.83,0,*5D
1503515297.62,26798,17.13,73980.5,-3.17,-23.85,-24.87,0,*52
1503515298.88,26799,17.13,73980.3,-3.13,-23.79,-24.83,0,*50
1503515300.16,26800,17.13,73980.5,-3.17,-24.15,-25.03,0,*5F